Tracking 19638 objects as of 20-Apr-2019
HD Live streaming from Space Station
objects crossing your sky now

METEOR 2-5 DEB

Track METEOR 2-5 DEB now!
10-day predictions


NORAD ID: 38278
Int'l Code: 1979-095BY
Perigee: 838.1 km
Apogee: 848.4 km
Inclination: 81.2 °
Period: 101.6 minutes
Semi major axis: 7214 km
RCS: 0.007 m2 (small)
Launch date: October 31, 1979
Source: Commonwealth of Independent States (former USSR) (CIS)
Launch site: PLESETSK MISSILE AND SPACE COMPLEX (PKMTR)

Note: This is SATELLITE DEBRIS
aabbcc
Your satellite tracking list
Your tracking list is empty




NASA's NSSDC Master Catalog

Two Line Element Set (TLE):
1 38278U 79095BY  19109.62397083  .00001195  00000-0  59063-3 0  9998
2 38278  81.1978 226.3814 0007148 250.6528 169.3106 14.16814612388579
Source of the keplerian elements: AFSPC